Location: Bacharowice
(49.9333°N, 19.5833°E)
Time: 03:55:33
(UTC+00:00)

BREEZE M DEB (TANK) - Pass Details

Date: 11 May 2021
Orbit: 273 x 14490 km, 49.6° (Epoch: 21 June)

Event Time Altitude Azimuth Distance (km) Brightness Sun altitude
Rises 19:47:20 0° 281° (W) 4,522 7.9 -12.2°
Reaches altitude 10° 19:51:40 10° 279° (W) 2,406 6.3 -12.7°
Maximum altitude 19:56:03 63° 198° (SSW) 450 1.7 -13.1°
Enters shadow 19:57:05 29° 125° (SE) 668 2.2 -13.3°
